Regional Weather Roundup
Issued by NWS

Home | Current Version | Previous Version | Text Only | Print | Product List | Glossary On
Versions: 1 2 3 4 5 6 7 8 9 10 11 12 13 14 15 16 17 18 19 20 21 22 23 24 25 26 27 28 29 30 31 32 33 34 35 36 37 38 39 40 41 42 43 44 45 46 47 48 49 50
000
ASUS46 KLOX 281512
RWRCA

SOUTHERN CALIFORNIA WEATHER ROUNDUP
NATIONAL WEATHER SERVICE OXNARD CALIFORNIA
700 AM PST SUN DEC 28 2014

NOTE: "FAIR" INDICATES FEW OR NO CLOUDS BELOW 12,000 FEET WITH NO
SIGNIFICANT WEATHER AND/OR OBSTRUCTIONS TO VISIBILITY.

  -  STATIONS PRECEEDED BY AN ASTERISK (*) ARE NOT NWS OR FAA
     STATIONS AND ARE NOT SUBJECT TO NWS AND FAA QUALITY CONTROL.

CAZ041-042-087-281600-
LA AND ORANGE COUNTY COASTAL AREAS


CITY           SKY/WX    TMP DP  RH WIND       PRES   REMARKS
L.A. DOWNTOWN  MOCLDY    45  24  43 CALM      30.25S
L.A. AIRPORT   CLOUDY    47  22  37 CALM      30.26R
LONG BEACH     MOCLDY    43  27  53 CALM      30.26R

CITY           SKY/WX    TMP DP  RH WIND       PRES   REMARKS
AVALON           N/A    N/A N/A N/A MISG        N/A
FULLERTON      MOCLDY    41  28  60 CALM      30.25R
HAWTHORNE      CLOUDY    46  25  43 CALM      30.26R
*LEO CARRILLO    N/A     48  30  50 N7          N/A
*LOS ALAMITOS  FAIR      40  27  59 N6        30.25S
*REDONDO BEACH   N/A     41  29  61 CALM      30.25R
SANTA ANA      MOCLDY    45  27  49 CALM      30.25S
STA MONICA APT CLOUDY    46  22  38 NE3       30.26R
TORRANCE       MOCLDY    43  32  65 VRB6      30.27
*UCLA            N/A     48  16  27 NW1       30.23R

$$

CAZ547-548-048-281600-
LA COUNTY VALLEYS AND INLAND EMPIRE


CITY           SKY/WX    TMP DP  RH WIND       PRES   REMARKS
BURBANK        MOCLDY    39  25  57 CALM      30.25R
VAN NUYS       MOCLDY    38  26  62 CALM      30.25R

CITY           SKY/WX    TMP DP  RH WIND       PRES   REMARKS
CORONA AIRPORT PTSUNNY   29  27  92 CALM      30.27S
*CHATSWORTH      N/A     39  28  62 CALM      30.27R
CHINO          MOCLDY    35  27  72 CALM      30.27S
MARCH AFB      MOCLDY    30  25  80 CALM      30.24S
*NORTHRIDGE      N/A     39  19  45 CALM        N/A
ONTARIO        MOCLDY    38  26  62 CALM      30.25R
*PASADENA        N/A     43  27  52 CALM        N/A
RIVERSIDE      MOCLDY    38  22  52 NE5       30.26R WCI  34
SAN BERNARDINO PTCLDY    30  19  64 NE6       30.25  WCI  24
*SAN RAFAEL HI   N/A     45  14  28 SW3         N/A
*SAUGUS          N/A     37  14  38 NE2         N/A
*WHITEMAN AP   NOT AVBL
*WHITTIER HILL   N/A     48  14  25 E9          N/A

$$

CAZ054-055-281600-
LA AND SAN BERNARDINO COUNTY MOUNTAINS


CITY           SKY/WX    TMP DP  RH WIND       PRES   REMARKS
*BIG BEAR AIRP MOSUNNY   21  10  63 CALM      30.21S
*CHILAO          N/A     43 -20   6 NW7         N/A
SANDBERG       PTCLDY    34  11  38 NE12      30.22R WCI  25
*WARM SPRINGS    N/A     34  10  36 NE10        N/A  WCI  26

$$

CAZ028-029-059-060-099-281600-
ANTELOPE VALLEY AND SURROUNDING AREAS


CITY           SKY/WX    TMP DP  RH WIND       PRES   REMARKS
LANCASTER      PTCLDY    26  21  81 W3        30.29S
PALMDALE       PTCLDY    28  21  75 W3        30.27F
*POPPY PARK      N/A     32  20  61 W3          N/A

CITY           SKY/WX    TMP DP  RH WIND       PRES   REMARKS
29 PALMS       PTCLDY    28  10  46 NW8       30.35R WCI  20
BARSTOW/DAGGET PTCLDY    30  14  51 W9        30.29R WCI  22
BISHOP         PTCLDY    20   7  57 NW5       30.22S WCI  13
CHINA LAKE     MOCLDY    27  20  75 SW5       30.29R WCI  22
EDWARDS AFB    MOCLDY    25  22  86 SW2       30.27S
MOJAVE         FAIR      32  18  55 CALM      30.27S
NEEDLES        MOCLDY    34  11  38 SW3       30.30S
VICTORVILLE      N/A     28  18  64 CALM      30.26S

$$

CAZ039-040-281600-
VENTURA AND SANTA BARBARA COUNTY COAST


CITY           SKY/WX    TMP DP  RH WIND       PRES   REMARKS
CAMARILLO      MOCLDY    39  28  64 CALM      30.26R
NWS OXNARD       N/A     41  24  50 CALM      30.26R
OXNARD AIRPORT MOCLDY    45  24  43 NE10      30.26R
*POINT MUGU    MOCLDY    44  29  55 N6        30.27R
SBA APT/GOLETA PTCLDY    40  34  79 CALM      30.24R
*SANTA BARBARA   N/A     43  33  68 CALM      30.32S
*VENTURA         N/A     46  22  38 N10       30.29S

$$

CAZ044-045-281600-
VENTURA COUNTY VALLEYS


CITY           SKY/WX    TMP DP  RH WIND       PRES   REMARKS
*SIMI VALLEY     N/A     39  28  64 CALM      30.26R
*OJAI            N/A     32  29  92 CALM      30.26R
*FILLMORE        N/A     33  28  81 CALM      30.19R

$$

CAZ053-281600-
VENTURA COUNTY MOUNTAINS


CITY           SKY/WX    TMP DP  RH WIND       PRES   REMARKS
*LOCKWOOD VLY    N/A     27  12  54 MISG        N/A
*ROSE VALLEY     N/A     23  23 100 MISG        N/A

$$

CAZ034-035-036-281600-
CENTRAL COAST AND SANTA YNEZ VALLEY


CITY           SKY/WX    TMP DP  RH WIND       PRES   REMARKS
SAN LUIS OBISP PTCLDY    36  34  92 E3        30.28S
SANTA MARIA    CLEAR     37  31  78 E3        30.28S

CITY           SKY/WX    TMP DP  RH WIND       PRES   REMARKS
*CAL POLY SLO    N/A     48  36  61 W9          N/A
*LOMPOC        CLEAR     34  27  75 E3        30.27F
*PISMO BEACH     N/A     41  37  85 NE3       30.29S
*SANTA YNEZ    FAIR      32  30  93 CALM      30.26F

$$

CAZ037-038-051-281600-
SAN LUIS OBISPO COUNTY INTERIOR AND CUYAMA VALLEY


CITY           SKY/WX    TMP DP  RH WIND       PRES   REMARKS
*CUYAMA          N/A     32  27  80 CALM      30.31R
PASO ROBLES    MOCLDY    34  31  88 CALM      30.31R

$$

CAZ032-033-061-281600-
SOUTHERN DESERTS


CITY           SKY/WX    TMP DP  RH WIND       PRES   REMARKS
BLYTHE         CLEAR     35  15  44 W5        30.30R WCI  31
IMPERIAL       CLEAR     31  15  52 W7        30.29R WCI  24
PALM SPRINGS   PTCLDY    40  18  41 NW8       30.30R WCI  34
THERMAL        PTCLDY    27  16  63 N6        30.29R WCI  20

$$

ELSEWHERE ACROSS THE WESTERN UNITED STATES AND MEXICO


CITY           SKY/WX    TMP DP  RH WIND       PRES   REMARKS
DENVER, CO     PTCLDY     9   4  80 S12       29.91S WCI  -6
GRAND CANYON,  PTCLDY     8   4  83 CALM      30.19R
HONOLULU, HI   PTCLDY    66  55  68 NW7       29.91R
KAHULUI, MAUI  MOCLDY    72  55  56 N12       29.92R
LAKE TAHOE, CA CLEAR     25  16  68 S3        30.22S
LAS VEGAS, NV  MOCLDY    35  13  40 S7        30.23F WCI  29
MAMMOTH LAKES, FAIR      16  10  79 SE3       30.22R
MEXICO CITY, M PTSUNNY   57  45  62 CALM      30.39R
PHOENIX, AZ    PTCLDY    36  24  62 E3        30.26S
PORTLAND, OR   CLOUDY    42  38  85 W8        30.26R
RENO, NV       MOCLDY    25  20  81 CALM      30.22S
SALT LAKE CITY CLOUDY    27  17  66 SE8       30.08F WCI  19
SAN DIEGO, CA  MOCLDY    44  22  41 N3        30.27R
SAN FRANCISCO, PTCLDY    44  41  89 CALM      30.33S
SAN JOSE, CA   PTCLDY    37  34  89 CALM      30.33S
SEATTLE, WA    MOCLDY    39  36  89 CALM      30.18R
TIJUANA, MEX   PTCLDY    43  12  28 SE6       30.26R

$$

STATION/POSITION TIME  TEMP    WIND        PRES    VSBY  WAVE
                       AIR SEA DIR/SP/G                  HT/PER
                 (UTC) (F)     (DEG/KT/KT) (MB)    (MI)  (FT/S)
POINT ARGUELLO B NOT AVBL
WEST SANTA BARBA 1500   56 61  320/ 14/ 17 1023.8R         6/14
POINT CONCEPTION NOT AVBL
EAST SANTA BARBA NOT AVBL
SANTA MONICA BAY 1500   57 62  320/  4/  8 1024.7R         1/12



USA.gov is the U.S. government's official web portal to all federal, state and local government web resources and services.